Index of /20260427/WXO-DD/model_rdps/10km/06/071
Name Last modified Size Description
Parent Directory -
20260427T06Z_MSC_RDPS_AbsoluteVorticity_IsbL-0250_RLatLon0.09_PT071H.grib2 2026-04-27 09:01 627K
20260427T06Z_MSC_RDPS_AbsoluteVorticity_IsbL-0500_RLatLon0.09_PT071H.grib2 2026-04-27 09:01 564K
20260427T06Z_MSC_RDPS_AbsoluteVorticity_IsbL-0700_RLatLon0.09_PT071H.grib2 2026-04-27 09:01 617K
20260427T06Z_MSC_RDPS_AbsoluteVorticity_IsbL-0850_RLatLon0.09_PT071H.grib2 2026-04-27 09:01 766K
20260427T06Z_MSC_RDPS_AirTemp_AGL-120m_RLatLon0.09_PT071H.grib2 2026-04-27 09:01 383K
20260427T06Z_MSC_RDPS_AirTemp_AGL-2m_RLatLon0.09_PT071H.grib2 2026-04-27 09:01 618K
20260427T06Z_MSC_RDPS_AirTemp_AGL-40m_RLatLon0.09_PT071H.grib2 2026-04-27 09:01 383K
20260427T06Z_MSC_RDPS_AirTemp_AGL-80m_RLatLon0.09_PT071H.grib2 2026-04-27 09:01 389K
20260427T06Z_MSC_RDPS_AirTemp_IsbL-0001_RLatLon0.09_PT071H.grib2 2026-04-27 09:01 295K
20260427T06Z_MSC_RDPS_AirTemp_IsbL-0005_RLatLon0.09_PT071H.grib2 2026-04-27 09:01 290K
20260427T06Z_MSC_RDPS_AirTemp_IsbL-0010_RLatLon0.09_PT071H.grib2 2026-04-27 09:01 300K
20260427T06Z_MSC_RDPS_AirTemp_IsbL-0020_RLatLon0.09_PT071H.grib2 2026-04-27 09:01 312K
20260427T06Z_MSC_RDPS_AirTemp_IsbL-0030_RLatLon0.09_PT071H.grib2 2026-04-27 09:01 337K
20260427T06Z_MSC_RDPS_AirTemp_IsbL-0050_RLatLon0.09_PT071H.grib2 2026-04-27 09:01 313K
20260427T06Z_MSC_RDPS_AirTemp_IsbL-0100_RLatLon0.09_PT071H.grib2 2026-04-27 09:01 431K
20260427T06Z_MSC_RDPS_AirTemp_IsbL-0150_RLatLon0.09_PT071H.grib2 2026-04-27 09:01 429K
20260427T06Z_MSC_RDPS_AirTemp_IsbL-0175_RLatLon0.09_PT071H.grib2 2026-04-27 09:01 416K
20260427T06Z_MSC_RDPS_AirTemp_IsbL-0200_RLatLon0.09_PT071H.grib2 2026-04-27 09:01 418K
20260427T06Z_MSC_RDPS_AirTemp_IsbL-0225_RLatLon0.09_PT071H.grib2 2026-04-27 09:01 419K
20260427T06Z_MSC_RDPS_AirTemp_IsbL-0250_RLatLon0.09_PT071H.grib2 2026-04-27 09:01 430K
20260427T06Z_MSC_RDPS_AirTemp_IsbL-0275_RLatLon0.09_PT071H.grib2 2026-04-27 09:01 408K
20260427T06Z_MSC_RDPS_AirTemp_IsbL-0300_RLatLon0.09_PT071H.grib2 2026-04-27 09:01 439K
20260427T06Z_MSC_RDPS_AirTemp_IsbL-0350_RLatLon0.09_PT071H.grib2 2026-04-27 09:01 426K
20260427T06Z_MSC_RDPS_AirTemp_IsbL-0400_RLatLon0.09_PT071H.grib2 2026-04-27 09:01 428K
20260427T06Z_MSC_RDPS_AirTemp_IsbL-0450_RLatLon0.09_PT071H.grib2 2026-04-27 09:01 399K
20260427T06Z_MSC_RDPS_AirTemp_IsbL-0500_RLatLon0.09_PT071H.grib2 2026-04-27 09:01 409K
20260427T06Z_MSC_RDPS_AirTemp_IsbL-0550_RLatLon0.09_PT071H.grib2 2026-04-27 09:01 426K
20260427T06Z_MSC_RDPS_AirTemp_IsbL-0600_RLatLon0.09_PT071H.grib2 2026-04-27 09:01 446K
20260427T06Z_MSC_RDPS_AirTemp_IsbL-0650_RLatLon0.09_PT071H.grib2 2026-04-27 09:01 461K
20260427T06Z_MSC_RDPS_AirTemp_IsbL-0700_RLatLon0.09_PT071H.grib2 2026-04-27 09:01 375K
20260427T06Z_MSC_RDPS_AirTemp_IsbL-0750_RLatLon0.09_PT071H.grib2 2026-04-27 09:01 405K
20260427T06Z_MSC_RDPS_AirTemp_IsbL-0800_RLatLon0.09_PT071H.grib2 2026-04-27 09:01 444K
20260427T06Z_MSC_RDPS_AirTemp_IsbL-0850_RLatLon0.09_PT071H.grib2 2026-04-27 09:01 491K
20260427T06Z_MSC_RDPS_AirTemp_IsbL-0875_RLatLon0.09_PT071H.grib2 2026-04-27 09:01 513K
20260427T06Z_MSC_RDPS_AirTemp_IsbL-0900_RLatLon0.09_PT071H.grib2 2026-04-27 09:01 523K
20260427T06Z_MSC_RDPS_AirTemp_IsbL-0925_RLatLon0.09_PT071H.grib2 2026-04-27 09:01 518K
20260427T06Z_MSC_RDPS_AirTemp_IsbL-0950_RLatLon0.09_PT071H.grib2 2026-04-27 09:01 519K
20260427T06Z_MSC_RDPS_AirTemp_IsbL-0970_RLatLon0.09_PT071H.grib2 2026-04-27 09:01 511K
20260427T06Z_MSC_RDPS_AirTemp_IsbL-0985_RLatLon0.09_PT071H.grib2 2026-04-27 09:01 498K
20260427T06Z_MSC_RDPS_AirTemp_IsbL-1000_RLatLon0.09_PT071H.grib2 2026-04-27 09:01 481K
20260427T06Z_MSC_RDPS_AirTemp_IsbL-1015_RLatLon0.09_PT071H.grib2 2026-04-27 09:01 479K
20260427T06Z_MSC_RDPS_Albedo_Sfc_RLatLon0.09_PT071H.grib2 2026-04-27 09:01 158K
20260427T06Z_MSC_RDPS_CAPE_Sfc_RLatLon0.09_PT071H.grib2 2026-04-27 09:01 1.6M
20260427T06Z_MSC_RDPS_CIN_Sfc_RLatLon0.09_PT071H.grib2 2026-04-27 09:01 1.1M
20260427T06Z_MSC_RDPS_CloudWater_EAtm_RLatLon0.09_PT071H.grib2 2026-04-27 09:01 219K
20260427T06Z_MSC_RDPS_ConvectivePrecip-Accum_Sfc_RLatLon0.09_PT071H.grib2 2026-04-27 09:01 1.3M
20260427T06Z_MSC_RDPS_DewPointDepression_AGL-2m_RLatLon0.09_PT071H.grib2 2026-04-27 09:01 390K
20260427T06Z_MSC_RDPS_DewPointDepression_IsbL-0001_RLatLon0.09_PT071H.grib2 2026-04-27 09:01 193
20260427T06Z_MSC_RDPS_DewPointDepression_IsbL-0005_RLatLon0.09_PT071H.grib2 2026-04-27 09:01 193
20260427T06Z_MSC_RDPS_DewPointDepression_IsbL-0010_RLatLon0.09_PT071H.grib2 2026-04-27 09:01 193
20260427T06Z_MSC_RDPS_DewPointDepression_IsbL-0020_RLatLon0.09_PT071H.grib2 2026-04-27 09:01 193
20260427T06Z_MSC_RDPS_DewPointDepression_IsbL-0030_RLatLon0.09_PT071H.grib2 2026-04-27 09:01 193
20260427T06Z_MSC_RDPS_DewPointDepression_IsbL-0050_RLatLon0.09_PT071H.grib2 2026-04-27 09:01 81K
20260427T06Z_MSC_RDPS_DewPointDepression_IsbL-0100_RLatLon0.09_PT071H.grib2 2026-04-27 09:01 129K
20260427T06Z_MSC_RDPS_DewPointDepression_IsbL-0150_RLatLon0.09_PT071H.grib2 2026-04-27 09:01 149K
20260427T06Z_MSC_RDPS_DewPointDepression_IsbL-0175_RLatLon0.09_PT071H.grib2 2026-04-27 09:01 179K
20260427T06Z_MSC_RDPS_DewPointDepression_IsbL-0200_RLatLon0.09_PT071H.grib2 2026-04-27 09:01 217K
20260427T06Z_MSC_RDPS_DewPointDepression_IsbL-0225_RLatLon0.09_PT071H.grib2 2026-04-27 09:01 264K
20260427T06Z_MSC_RDPS_DewPointDepression_IsbL-0250_RLatLon0.09_PT071H.grib2 2026-04-27 09:01 302K
20260427T06Z_MSC_RDPS_DewPointDepression_IsbL-0275_RLatLon0.09_PT071H.grib2 2026-04-27 09:01 308K
20260427T06Z_MSC_RDPS_DewPointDepression_IsbL-0300_RLatLon0.09_PT071H.grib2 2026-04-27 09:01 327K
20260427T06Z_MSC_RDPS_DewPointDepression_IsbL-0350_RLatLon0.09_PT071H.grib2 2026-04-27 09:01 329K
20260427T06Z_MSC_RDPS_DewPointDepression_IsbL-0400_RLatLon0.09_PT071H.grib2 2026-04-27 09:01 338K
20260427T06Z_MSC_RDPS_DewPointDepression_IsbL-0450_RLatLon0.09_PT071H.grib2 2026-04-27 09:01 346K
20260427T06Z_MSC_RDPS_DewPointDepression_IsbL-0500_RLatLon0.09_PT071H.grib2 2026-04-27 09:01 351K
20260427T06Z_MSC_RDPS_DewPointDepression_IsbL-0550_RLatLon0.09_PT071H.grib2 2026-04-27 09:01 364K
20260427T06Z_MSC_RDPS_DewPointDepression_IsbL-0600_RLatLon0.09_PT071H.grib2 2026-04-27 09:01 379K
20260427T06Z_MSC_RDPS_DewPointDepression_IsbL-0650_RLatLon0.09_PT071H.grib2 2026-04-27 09:01 388K
20260427T06Z_MSC_RDPS_DewPointDepression_IsbL-0700_RLatLon0.09_PT071H.grib2 2026-04-27 09:01 395K
20260427T06Z_MSC_RDPS_DewPointDepression_IsbL-0750_RLatLon0.09_PT071H.grib2 2026-04-27 09:01 411K
20260427T06Z_MSC_RDPS_DewPointDepression_IsbL-0800_RLatLon0.09_PT071H.grib2 2026-04-27 09:01 435K
20260427T06Z_MSC_RDPS_DewPointDepression_IsbL-0850_RLatLon0.09_PT071H.grib2 2026-04-27 09:01 462K
20260427T06Z_MSC_RDPS_DewPointDepression_IsbL-0875_RLatLon0.09_PT071H.grib2 2026-04-27 09:01 470K
20260427T06Z_MSC_RDPS_DewPointDepression_IsbL-0900_RLatLon0.09_PT071H.grib2 2026-04-27 09:01 463K
20260427T06Z_MSC_RDPS_DewPointDepression_IsbL-0925_RLatLon0.09_PT071H.grib2 2026-04-27 09:01 446K
20260427T06Z_MSC_RDPS_DewPointDepression_IsbL-0950_RLatLon0.09_PT071H.grib2 2026-04-27 09:01 438K
20260427T06Z_MSC_RDPS_DewPointDepression_IsbL-0970_RLatLon0.09_PT071H.grib2 2026-04-27 09:01 427K
20260427T06Z_MSC_RDPS_DewPointDepression_IsbL-0985_RLatLon0.09_PT071H.grib2 2026-04-27 09:01 420K
20260427T06Z_MSC_RDPS_DewPointDepression_IsbL-1000_RLatLon0.09_PT071H.grib2 2026-04-27 09:01 414K
20260427T06Z_MSC_RDPS_DewPointDepression_IsbL-1015_RLatLon0.09_PT071H.grib2 2026-04-27 09:01 405K
20260427T06Z_MSC_RDPS_DewPoint_AGL-2m_RLatLon0.09_PT071H.grib2 2026-04-27 09:01 301K
20260427T06Z_MSC_RDPS_DownwardLongwaveRadiationFlux-Accum_Sfc_RLatLon0.09_PT071H.grib2 2026-04-27 09:01 425K
20260427T06Z_MSC_RDPS_DownwardShortwaveRadiationFlux-Accum_NTAtm_RLatLon0.09_PT071H.grib2 2026-04-27 09:01 160K
20260427T06Z_MSC_RDPS_DownwardShortwaveRadiationFlux-Accum_Sfc_RLatLon0.09_PT071H.grib2 2026-04-27 09:01 623K
20260427T06Z_MSC_RDPS_FreezingRain-Accum1h_Sfc_RLatLon0.09_PT071H.grib2 2026-04-27 09:01 32K
20260427T06Z_MSC_RDPS_FreezingRain-Accum_Sfc_RLatLon0.09_PT071H.grib2 2026-04-27 09:01 216K
20260427T06Z_MSC_RDPS_GeopotentialHeight_IsbL-0001_RLatLon0.09_PT071H.grib2 2026-04-27 09:01 235K
20260427T06Z_MSC_RDPS_GeopotentialHeight_IsbL-0005_RLatLon0.09_PT071H.grib2 2026-04-27 09:01 333K
20260427T06Z_MSC_RDPS_GeopotentialHeight_IsbL-0010_RLatLon0.09_PT071H.grib2 2026-04-27 09:01 301K
20260427T06Z_MSC_RDPS_GeopotentialHeight_IsbL-0020_RLatLon0.09_PT071H.grib2 2026-04-27 09:01 300K
20260427T06Z_MSC_RDPS_GeopotentialHeight_IsbL-0030_RLatLon0.09_PT071H.grib2 2026-04-27 09:01 302K
20260427T06Z_MSC_RDPS_GeopotentialHeight_IsbL-0050_RLatLon0.09_PT071H.grib2 2026-04-27 09:01 337K
20260427T06Z_MSC_RDPS_GeopotentialHeight_IsbL-0100_RLatLon0.09_PT071H.grib2 2026-04-27 09:01 283K
20260427T06Z_MSC_RDPS_GeopotentialHeight_IsbL-0150_RLatLon0.09_PT071H.grib2 2026-04-27 09:01 229K
20260427T06Z_MSC_RDPS_GeopotentialHeight_IsbL-0175_RLatLon0.09_PT071H.grib2 2026-04-27 09:01 264K
20260427T06Z_MSC_RDPS_GeopotentialHeight_IsbL-0200_RLatLon0.09_PT071H.grib2 2026-04-27 09:01 266K
20260427T06Z_MSC_RDPS_GeopotentialHeight_IsbL-0225_RLatLon0.09_PT071H.grib2 2026-04-27 09:01 266K
20260427T06Z_MSC_RDPS_GeopotentialHeight_IsbL-0250_RLatLon0.09_PT071H.grib2 2026-04-27 09:01 267K
20260427T06Z_MSC_RDPS_GeopotentialHeight_IsbL-0275_RLatLon0.09_PT071H.grib2 2026-04-27 09:01 267K
20260427T06Z_MSC_RDPS_GeopotentialHeight_IsbL-0300_RLatLon0.09_PT071H.grib2 2026-04-27 09:01 266K
20260427T06Z_MSC_RDPS_GeopotentialHeight_IsbL-0350_RLatLon0.09_PT071H.grib2 2026-04-27 09:01 232K
20260427T06Z_MSC_RDPS_GeopotentialHeight_IsbL-0400_RLatLon0.09_PT071H.grib2 2026-04-27 09:01 228K
20260427T06Z_MSC_RDPS_GeopotentialHeight_IsbL-0450_RLatLon0.09_PT071H.grib2 2026-04-27 09:01 296K
20260427T06Z_MSC_RDPS_GeopotentialHeight_IsbL-0500_RLatLon0.09_PT071H.grib2 2026-04-27 09:01 291K
20260427T06Z_MSC_RDPS_GeopotentialHeight_IsbL-0550_RLatLon0.09_PT071H.grib2 2026-04-27 09:01 287K
20260427T06Z_MSC_RDPS_GeopotentialHeight_IsbL-0600_RLatLon0.09_PT071H.grib2 2026-04-27 09:01 284K
20260427T06Z_MSC_RDPS_GeopotentialHeight_IsbL-0650_RLatLon0.09_PT071H.grib2 2026-04-27 09:01 253K
20260427T06Z_MSC_RDPS_GeopotentialHeight_IsbL-0700_RLatLon0.09_PT071H.grib2 2026-04-27 09:01 333K
20260427T06Z_MSC_RDPS_GeopotentialHeight_IsbL-0750_RLatLon0.09_PT071H.grib2 2026-04-27 09:01 335K
20260427T06Z_MSC_RDPS_GeopotentialHeight_IsbL-0800_RLatLon0.09_PT071H.grib2 2026-04-27 09:01 373K
20260427T06Z_MSC_RDPS_GeopotentialHeight_IsbL-0850_RLatLon0.09_PT071H.grib2 2026-04-27 09:01 383K
20260427T06Z_MSC_RDPS_GeopotentialHeight_IsbL-0875_RLatLon0.09_PT071H.grib2 2026-04-27 09:01 387K
20260427T06Z_MSC_RDPS_GeopotentialHeight_IsbL-0900_RLatLon0.09_PT071H.grib2 2026-04-27 09:01 392K
20260427T06Z_MSC_RDPS_GeopotentialHeight_IsbL-0925_RLatLon0.09_PT071H.grib2 2026-04-27 09:01 395K
20260427T06Z_MSC_RDPS_GeopotentialHeight_IsbL-0950_RLatLon0.09_PT071H.grib2 2026-04-27 09:01 398K
20260427T06Z_MSC_RDPS_GeopotentialHeight_IsbL-0970_RLatLon0.09_PT071H.grib2 2026-04-27 09:01 403K
20260427T06Z_MSC_RDPS_GeopotentialHeight_IsbL-0985_RLatLon0.09_PT071H.grib2 2026-04-27 09:01 411K
20260427T06Z_MSC_RDPS_GeopotentialHeight_IsbL-1000_RLatLon0.09_PT071H.grib2 2026-04-27 09:01 422K
20260427T06Z_MSC_RDPS_GeopotentialHeight_IsbL-1015_RLatLon0.09_PT071H.grib2 2026-04-27 09:01 437K
20260427T06Z_MSC_RDPS_Humidex_Sfc_RLatLon0.09_PT071H.grib2 2026-04-27 09:01 2.4M
20260427T06Z_MSC_RDPS_IcePellets-Accum1h_Sfc_RLatLon0.09_PT071H.grib2 2026-04-27 09:01 2.4K
20260427T06Z_MSC_RDPS_IcePellets-Accum_Sfc_RLatLon0.09_PT071H.grib2 2026-04-27 09:01 31K
20260427T06Z_MSC_RDPS_KIndex_Sfc_RLatLon0.09_PT071H.grib2 2026-04-27 09:01 2.5M
20260427T06Z_MSC_RDPS_LatentHeatNetFlux_Sfc_RLatLon0.09_PT071H.grib2 2026-04-27 09:01 396K
20260427T06Z_MSC_RDPS_LiftedIndex-MU-VT_IsbL-0500_RLatLon0.09_PT071H.grib2 2026-04-27 09:01 2.4M
20260427T06Z_MSC_RDPS_NetLongwaveRadiationFlux-Accum_Sfc_RLatLon0.09_PT071H.grib2 2026-04-27 09:01 470K
20260427T06Z_MSC_RDPS_NetShortwaveRadiationFlux-Accum_Sfc_RLatLon0.09_PT071H.grib2 2026-04-27 09:01 625K
20260427T06Z_MSC_RDPS_PlanetaryBoundaryLayerHeight_Sfc_RLatLon0.09_PT071H.grib2 2026-04-27 09:01 1.1M
20260427T06Z_MSC_RDPS_Precip-Accum1h_Sfc_RLatLon0.09_PT071H.grib2 2026-04-27 09:01 1.2M
20260427T06Z_MSC_RDPS_Precip-Accum_Sfc_RLatLon0.09_PT071H.grib2 2026-04-27 09:01 2.2M
20260427T06Z_MSC_RDPS_PrecipRate_Sfc_RLatLon0.09_PT071H.grib2 2026-04-27 09:01 166K
20260427T06Z_MSC_RDPS_PrecipType-Instant_Sfc_RLatLon0.09_PT071H.grib2 2026-04-27 09:01 538K
20260427T06Z_MSC_RDPS_Pressure-Trend3h_Sfc_RLatLon0.09_PT071H.grib2 2026-04-27 09:01 1.2M
20260427T06Z_MSC_RDPS_Pressure_MSL_RLatLon0.09_PT071H.grib2 2026-04-27 09:01 322K
20260427T06Z_MSC_RDPS_Pressure_PVU-1.5_RLatLon0.09_PT071H.grib2 2026-04-27 09:01 2.4M
20260427T06Z_MSC_RDPS_Pressure_PVU-1_RLatLon0.09_PT071H.grib2 2026-04-27 09:01 2.4M
20260427T06Z_MSC_RDPS_Pressure_PVU-2_RLatLon0.09_PT071H.grib2 2026-04-27 09:01 2.4M
20260427T06Z_MSC_RDPS_Pressure_Sfc_RLatLon0.09_PT071H.grib2 2026-04-27 09:01 499K
20260427T06Z_MSC_RDPS_RadiativeTemp_Sfc_RLatLon0.09_PT071H.grib2 2026-04-27 09:01 297K
20260427T06Z_MSC_RDPS_Rain-Accum1h_Sfc_RLatLon0.09_PT071H.grib2 2026-04-27 09:01 593K
20260427T06Z_MSC_RDPS_Rain-Accum_Sfc_RLatLon0.09_PT071H.grib2 2026-04-27 09:01 1.7M
20260427T06Z_MSC_RDPS_RelativeHumidity_AGL-2m_RLatLon0.09_PT071H.grib2 2026-04-27 09:01 1.0M
20260427T06Z_MSC_RDPS_RelativeHumidity_IsbL-0010_RLatLon0.09_PT071H.grib2 2026-04-27 09:01 619K
20260427T06Z_MSC_RDPS_RelativeHumidity_IsbL-0020_RLatLon0.09_PT071H.grib2 2026-04-27 09:01 671K
20260427T06Z_MSC_RDPS_RelativeHumidity_IsbL-0030_RLatLon0.09_PT071H.grib2 2026-04-27 09:01 603K
20260427T06Z_MSC_RDPS_RelativeHumidity_IsbL-0050_RLatLon0.09_PT071H.grib2 2026-04-27 09:01 368K
20260427T06Z_MSC_RDPS_RelativeHumidity_IsbL-0100_RLatLon0.09_PT071H.grib2 2026-04-27 09:01 283K
20260427T06Z_MSC_RDPS_RelativeHumidity_IsbL-0150_RLatLon0.09_PT071H.grib2 2026-04-27 09:01 414K
20260427T06Z_MSC_RDPS_RelativeHumidity_IsbL-0175_RLatLon0.09_PT071H.grib2 2026-04-27 09:01 486K
20260427T06Z_MSC_RDPS_RelativeHumidity_IsbL-0200_RLatLon0.09_PT071H.grib2 2026-04-27 09:01 560K
20260427T06Z_MSC_RDPS_RelativeHumidity_IsbL-0225_RLatLon0.09_PT071H.grib2 2026-04-27 09:01 629K
20260427T06Z_MSC_RDPS_RelativeHumidity_IsbL-0250_RLatLon0.09_PT071H.grib2 2026-04-27 09:01 703K
20260427T06Z_MSC_RDPS_RelativeHumidity_IsbL-0275_RLatLon0.09_PT071H.grib2 2026-04-27 09:01 727K
20260427T06Z_MSC_RDPS_RelativeHumidity_IsbL-0300_RLatLon0.09_PT071H.grib2 2026-04-27 09:01 769K
20260427T06Z_MSC_RDPS_RelativeHumidity_IsbL-0350_RLatLon0.09_PT071H.grib2 2026-04-27 09:01 782K
20260427T06Z_MSC_RDPS_RelativeHumidity_IsbL-0400_RLatLon0.09_PT071H.grib2 2026-04-27 09:01 794K
20260427T06Z_MSC_RDPS_RelativeHumidity_IsbL-0450_RLatLon0.09_PT071H.grib2 2026-04-27 09:01 797K
20260427T06Z_MSC_RDPS_RelativeHumidity_IsbL-0500_RLatLon0.09_PT071H.grib2 2026-04-27 09:01 800K
20260427T06Z_MSC_RDPS_RelativeHumidity_IsbL-0550_RLatLon0.09_PT071H.grib2 2026-04-27 09:01 819K
20260427T06Z_MSC_RDPS_RelativeHumidity_IsbL-0600_RLatLon0.09_PT071H.grib2 2026-04-27 09:01 844K
20260427T06Z_MSC_RDPS_RelativeHumidity_IsbL-0650_RLatLon0.09_PT071H.grib2 2026-04-27 09:01 859K
20260427T06Z_MSC_RDPS_RelativeHumidity_IsbL-0700_RLatLon0.09_PT071H.grib2 2026-04-27 09:01 878K
20260427T06Z_MSC_RDPS_RelativeHumidity_IsbL-0750_RLatLon0.09_PT071H.grib2 2026-04-27 09:01 913K
20260427T06Z_MSC_RDPS_RelativeHumidity_IsbL-0800_RLatLon0.09_PT071H.grib2 2026-04-27 09:01 966K
20260427T06Z_MSC_RDPS_RelativeHumidity_IsbL-0850_RLatLon0.09_PT071H.grib2 2026-04-27 09:01 1.0M
20260427T06Z_MSC_RDPS_RelativeHumidity_IsbL-0875_RLatLon0.09_PT071H.grib2 2026-04-27 09:01 1.0M
20260427T06Z_MSC_RDPS_RelativeHumidity_IsbL-0900_RLatLon0.09_PT071H.grib2 2026-04-27 09:01 1.1M
20260427T06Z_MSC_RDPS_RelativeHumidity_IsbL-0925_RLatLon0.09_PT071H.grib2 2026-04-27 09:01 1.0M
20260427T06Z_MSC_RDPS_RelativeHumidity_IsbL-0950_RLatLon0.09_PT071H.grib2 2026-04-27 09:01 1.0M
20260427T06Z_MSC_RDPS_RelativeHumidity_IsbL-0970_RLatLon0.09_PT071H.grib2 2026-04-27 09:01 1.0M
20260427T06Z_MSC_RDPS_RelativeHumidity_IsbL-0985_RLatLon0.09_PT071H.grib2 2026-04-27 09:01 1.0M
20260427T06Z_MSC_RDPS_RelativeHumidity_IsbL-1000_RLatLon0.09_PT071H.grib2 2026-04-27 09:01 1.0M
20260427T06Z_MSC_RDPS_RelativeHumidity_IsbL-1015_RLatLon0.09_PT071H.grib2 2026-04-27 09:01 1.0M
20260427T06Z_MSC_RDPS_Runoff-Accum_Sfc_RLatLon0.09_PT071H.grib2 2026-04-27 09:01 60K
20260427T06Z_MSC_RDPS_SWEATIndex_Sfc_RLatLon0.09_PT071H.grib2 2026-04-27 09:01 2.4M
20260427T06Z_MSC_RDPS_SeeingIndex_EAtm_RLatLon0.09_PT071H.grib2 2026-04-27 09:01 1.0M
20260427T06Z_MSC_RDPS_SensibleHeatNetFlux_Sfc_RLatLon0.09_PT071H.grib2 2026-04-27 09:01 284K
20260427T06Z_MSC_RDPS_ShowalterIndex_IsbL-0500_RLatLon0.09_PT071H.grib2 2026-04-27 09:01 2.6M
20260427T06Z_MSC_RDPS_SkyTransparencyIndex_EAtm_RLatLon0.09_PT071H.grib2 2026-04-27 09:01 671K
20260427T06Z_MSC_RDPS_Snow-Accum1h_Sfc_RLatLon0.09_PT071H.grib2 2026-04-27 09:01 462K
20260427T06Z_MSC_RDPS_Snow-Accum_Sfc_RLatLon0.09_PT071H.grib2 2026-04-27 09:01 838K
20260427T06Z_MSC_RDPS_SnowDensity_Sfc_RLatLon0.09_PT071H.grib2 2026-04-27 09:01 186K
20260427T06Z_MSC_RDPS_SnowDepth_Sfc_RLatLon0.09_PT071H.grib2 2026-04-27 09:01 695K
20260427T06Z_MSC_RDPS_SoilTemp_DBS-0to10cm_RLatLon0.09_PT071H.grib2 2026-04-27 09:01 240K
20260427T06Z_MSC_RDPS_SoilTemp_Sfc_RLatLon0.09_PT071H.grib2 2026-04-27 09:01 261K
20260427T06Z_MSC_RDPS_SoilVolumetricIceContent_Sfc_RLatLon0.09_PT071H.grib2 2026-04-27 09:01 165K
20260427T06Z_MSC_RDPS_SoilVolumetricWaterContent_DBS-0to10cm_RLatLon0.09_PT071H.grib2 2026-04-27 09:01 267K
20260427T06Z_MSC_RDPS_SoilVolumetricWaterContent_DBS-0to1cm_RLatLon0.09_PT071H.grib2 2026-04-27 09:01 338K
20260427T06Z_MSC_RDPS_SpecificHumidity_AGL-120m_RLatLon0.09_PT071H.grib2 2026-04-27 09:01 480K
20260427T06Z_MSC_RDPS_SpecificHumidity_AGL-2m_RLatLon0.09_PT071H.grib2 2026-04-27 09:01 641K
20260427T06Z_MSC_RDPS_SpecificHumidity_AGL-40m_RLatLon0.09_PT071H.grib2 2026-04-27 09:01 484K
20260427T06Z_MSC_RDPS_SpecificHumidity_AGL-80m_RLatLon0.09_PT071H.grib2 2026-04-27 09:01 481K
20260427T06Z_MSC_RDPS_SpecificHumidity_IsbL-0001_RLatLon0.09_PT071H.grib2 2026-04-27 09:01 344K
20260427T06Z_MSC_RDPS_SpecificHumidity_IsbL-0005_RLatLon0.09_PT071H.grib2 2026-04-27 09:01 353K
20260427T06Z_MSC_RDPS_SpecificHumidity_IsbL-0010_RLatLon0.09_PT071H.grib2 2026-04-27 09:01 392K
20260427T06Z_MSC_RDPS_SpecificHumidity_IsbL-0020_RLatLon0.09_PT071H.grib2 2026-04-27 09:01 378K
20260427T06Z_MSC_RDPS_SpecificHumidity_IsbL-0030_RLatLon0.09_PT071H.grib2 2026-04-27 09:01 437K
20260427T06Z_MSC_RDPS_SpecificHumidity_IsbL-0050_RLatLon0.09_PT071H.grib2 2026-04-27 09:01 446K
20260427T06Z_MSC_RDPS_SpecificHumidity_IsbL-0100_RLatLon0.09_PT071H.grib2 2026-04-27 09:01 352K
20260427T06Z_MSC_RDPS_SpecificHumidity_IsbL-0150_RLatLon0.09_PT071H.grib2 2026-04-27 09:01 456K
20260427T06Z_MSC_RDPS_SpecificHumidity_IsbL-0175_RLatLon0.09_PT071H.grib2 2026-04-27 09:01 441K
20260427T06Z_MSC_RDPS_SpecificHumidity_IsbL-0200_RLatLon0.09_PT071H.grib2 2026-04-27 09:01 456K
20260427T06Z_MSC_RDPS_SpecificHumidity_IsbL-0225_RLatLon0.09_PT071H.grib2 2026-04-27 09:01 460K
20260427T06Z_MSC_RDPS_SpecificHumidity_IsbL-0250_RLatLon0.09_PT071H.grib2 2026-04-27 09:01 523K
20260427T06Z_MSC_RDPS_SpecificHumidity_IsbL-0275_RLatLon0.09_PT071H.grib2 2026-04-27 09:01 478K
20260427T06Z_MSC_RDPS_SpecificHumidity_IsbL-0300_RLatLon0.09_PT071H.grib2 2026-04-27 09:01 451K
20260427T06Z_MSC_RDPS_SpecificHumidity_IsbL-0350_RLatLon0.09_PT071H.grib2 2026-04-27 09:01 440K
20260427T06Z_MSC_RDPS_SpecificHumidity_IsbL-0400_RLatLon0.09_PT071H.grib2 2026-04-27 09:01 519K
20260427T06Z_MSC_RDPS_SpecificHumidity_IsbL-0450_RLatLon0.09_PT071H.grib2 2026-04-27 09:01 569K
20260427T06Z_MSC_RDPS_SpecificHumidity_IsbL-0500_RLatLon0.09_PT071H.grib2 2026-04-27 09:01 504K
20260427T06Z_MSC_RDPS_SpecificHumidity_IsbL-0550_RLatLon0.09_PT071H.grib2 2026-04-27 09:01 580K
20260427T06Z_MSC_RDPS_SpecificHumidity_IsbL-0600_RLatLon0.09_PT071H.grib2 2026-04-27 09:01 638K
20260427T06Z_MSC_RDPS_SpecificHumidity_IsbL-0650_RLatLon0.09_PT071H.grib2 2026-04-27 09:01 558K
20260427T06Z_MSC_RDPS_SpecificHumidity_IsbL-0700_RLatLon0.09_PT071H.grib2 2026-04-27 09:01 600K
20260427T06Z_MSC_RDPS_SpecificHumidity_IsbL-0750_RLatLon0.09_PT071H.grib2 2026-04-27 09:01 648K
20260427T06Z_MSC_RDPS_SpecificHumidity_IsbL-0800_RLatLon0.09_PT071H.grib2 2026-04-27 09:01 717K
20260427T06Z_MSC_RDPS_SpecificHumidity_IsbL-0850_RLatLon0.09_PT071H.grib2 2026-04-27 09:01 787K
20260427T06Z_MSC_RDPS_SpecificHumidity_IsbL-0875_RLatLon0.09_PT071H.grib2 2026-04-27 09:01 817K
20260427T06Z_MSC_RDPS_SpecificHumidity_IsbL-0900_RLatLon0.09_PT071H.grib2 2026-04-27 09:01 833K
20260427T06Z_MSC_RDPS_SpecificHumidity_IsbL-0925_RLatLon0.09_PT071H.grib2 2026-04-27 09:01 833K
20260427T06Z_MSC_RDPS_SpecificHumidity_IsbL-0950_RLatLon0.09_PT071H.grib2 2026-04-27 09:01 832K
20260427T06Z_MSC_RDPS_SpecificHumidity_IsbL-0970_RLatLon0.09_PT071H.grib2 2026-04-27 09:01 818K
20260427T06Z_MSC_RDPS_SpecificHumidity_IsbL-0985_RLatLon0.09_PT071H.grib2 2026-04-27 09:01 668K
20260427T06Z_MSC_RDPS_SpecificHumidity_IsbL-1000_RLatLon0.09_PT071H.grib2 2026-04-27 09:01 659K
20260427T06Z_MSC_RDPS_SpecificHumidity_IsbL-1015_RLatLon0.09_PT071H.grib2 2026-04-27 09:01 651K
20260427T06Z_MSC_RDPS_SpecificHumidity_Sfc_RLatLon0.09_PT071H.grib2 2026-04-27 09:01 292K
20260427T06Z_MSC_RDPS_StormRelativeHelicity_EtaL-10000_RLatLon0.09_PT071H.grib2 2026-04-27 09:01 1.1M
20260427T06Z_MSC_RDPS_StormSeverityIndex_EtaL-10000_RLatLon0.09_PT071H.grib2 2026-04-27 09:01 1.1M
20260427T06Z_MSC_RDPS_Thickness_IsbL-0850to0700_RLatLon0.09_PT071H.grib2 2026-04-27 09:01 176K
20260427T06Z_MSC_RDPS_Thickness_IsbL-1000to0500_RLatLon0.09_PT071H.grib2 2026-04-27 09:01 198K
20260427T06Z_MSC_RDPS_Thickness_IsbL-1000to0850_RLatLon0.09_PT071H.grib2 2026-04-27 09:01 258K
20260427T06Z_MSC_RDPS_TotalCloudCover_Sfc_RLatLon0.09_PT071H.grib2 2026-04-27 09:01 653K
20260427T06Z_MSC_RDPS_TotalTotalsIndex_Sfc_RLatLon0.09_PT071H.grib2 2026-04-27 09:01 2.4M
20260427T06Z_MSC_RDPS_UVIndex-ClearSky_Sfc_RLatLon0.09_PT071H.grib2 2026-04-27 09:01 98K
20260427T06Z_MSC_RDPS_UVIndex_Sfc_RLatLon0.09_PT071H.grib2 2026-04-27 09:01 170K
20260427T06Z_MSC_RDPS_UpwardLongwaveRadiationFlux_NTAtm_RLatLon0.09_PT071H.grib2 2026-04-27 09:01 491K
20260427T06Z_MSC_RDPS_UpwardShortwaveRadiationFlux_NTAtm_RLatLon0.09_PT071H.grib2 2026-04-27 09:01 142K
20260427T06Z_MSC_RDPS_VerticalVelocity_IsbL-0250_RLatLon0.09_PT071H.grib2 2026-04-27 09:01 556K
20260427T06Z_MSC_RDPS_VerticalVelocity_IsbL-0500_RLatLon0.09_PT071H.grib2 2026-04-27 09:01 541K
20260427T06Z_MSC_RDPS_VerticalVelocity_IsbL-0700_RLatLon0.09_PT071H.grib2 2026-04-27 09:01 588K
20260427T06Z_MSC_RDPS_VerticalVelocity_IsbL-0850_RLatLon0.09_PT071H.grib2 2026-04-27 09:01 677K
20260427T06Z_MSC_RDPS_VerticalWindShear_EtaL-6500_RLatLon0.09_PT071H.grib2 2026-04-27 09:01 1.1M
20260427T06Z_MSC_RDPS_WindChill_Sfc_RLatLon0.09_PT071H.grib2 2026-04-27 09:01 1.1M
20260427T06Z_MSC_RDPS_WindDir_AGL-10m_RLatLon0.09_PT071H.grib2 2026-04-27 09:01 962K
20260427T06Z_MSC_RDPS_WindDir_AGL-120m_RLatLon0.09_PT071H.grib2 2026-04-27 09:01 598K
20260427T06Z_MSC_RDPS_WindDir_AGL-40m_RLatLon0.09_PT071H.grib2 2026-04-27 09:01 631K
20260427T06Z_MSC_RDPS_WindDir_AGL-80m_RLatLon0.09_PT071H.grib2 2026-04-27 09:01 611K
20260427T06Z_MSC_RDPS_WindDir_IsbL-0001_RLatLon0.09_PT071H.grib2 2026-04-27 09:01 315K
20260427T06Z_MSC_RDPS_WindDir_IsbL-0005_RLatLon0.09_PT071H.grib2 2026-04-27 09:01 356K
20260427T06Z_MSC_RDPS_WindDir_IsbL-0010_RLatLon0.09_PT071H.grib2 2026-04-27 09:01 385K
20260427T06Z_MSC_RDPS_WindDir_IsbL-0020_RLatLon0.09_PT071H.grib2 2026-04-27 09:01 419K
20260427T06Z_MSC_RDPS_WindDir_IsbL-0030_RLatLon0.09_PT071H.grib2 2026-04-27 09:01 422K
20260427T06Z_MSC_RDPS_WindDir_IsbL-0050_RLatLon0.09_PT071H.grib2 2026-04-27 09:01 430K
20260427T06Z_MSC_RDPS_WindDir_IsbL-0100_RLatLon0.09_PT071H.grib2 2026-04-27 09:01 436K
20260427T06Z_MSC_RDPS_WindDir_IsbL-0150_RLatLon0.09_PT071H.grib2 2026-04-27 09:01 415K
20260427T06Z_MSC_RDPS_WindDir_IsbL-0175_RLatLon0.09_PT071H.grib2 2026-04-27 09:01 435K
20260427T06Z_MSC_RDPS_WindDir_IsbL-0200_RLatLon0.09_PT071H.grib2 2026-04-27 09:01 448K
20260427T06Z_MSC_RDPS_WindDir_IsbL-0225_RLatLon0.09_PT071H.grib2 2026-04-27 09:01 453K
20260427T06Z_MSC_RDPS_WindDir_IsbL-0250_RLatLon0.09_PT071H.grib2 2026-04-27 09:01 458K
20260427T06Z_MSC_RDPS_WindDir_IsbL-0275_RLatLon0.09_PT071H.grib2 2026-04-27 09:01 483K
20260427T06Z_MSC_RDPS_WindDir_IsbL-0300_RLatLon0.09_PT071H.grib2 2026-04-27 09:01 478K
20260427T06Z_MSC_RDPS_WindDir_IsbL-0350_RLatLon0.09_PT071H.grib2 2026-04-27 09:01 499K
20260427T06Z_MSC_RDPS_WindDir_IsbL-0400_RLatLon0.09_PT071H.grib2 2026-04-27 09:01 516K
20260427T06Z_MSC_RDPS_WindDir_IsbL-0450_RLatLon0.09_PT071H.grib2 2026-04-27 09:01 527K
20260427T06Z_MSC_RDPS_WindDir_IsbL-0500_RLatLon0.09_PT071H.grib2 2026-04-27 09:01 544K
20260427T06Z_MSC_RDPS_WindDir_IsbL-0550_RLatLon0.09_PT071H.grib2 2026-04-27 09:01 563K
20260427T06Z_MSC_RDPS_WindDir_IsbL-0600_RLatLon0.09_PT071H.grib2 2026-04-27 09:01 593K
20260427T06Z_MSC_RDPS_WindDir_IsbL-0650_RLatLon0.09_PT071H.grib2 2026-04-27 09:01 635K
20260427T06Z_MSC_RDPS_WindDir_IsbL-0700_RLatLon0.09_PT071H.grib2 2026-04-27 09:01 679K
20260427T06Z_MSC_RDPS_WindDir_IsbL-0750_RLatLon0.09_PT071H.grib2 2026-04-27 09:01 722K
20260427T06Z_MSC_RDPS_WindDir_IsbL-0800_RLatLon0.09_PT071H.grib2 2026-04-27 09:01 781K
20260427T06Z_MSC_RDPS_WindDir_IsbL-0850_RLatLon0.09_PT071H.grib2 2026-04-27 09:01 853K
20260427T06Z_MSC_RDPS_WindDir_IsbL-0875_RLatLon0.09_PT071H.grib2 2026-04-27 09:01 880K
20260427T06Z_MSC_RDPS_WindDir_IsbL-0900_RLatLon0.09_PT071H.grib2 2026-04-27 09:01 900K
20260427T06Z_MSC_RDPS_WindDir_IsbL-0925_RLatLon0.09_PT071H.grib2 2026-04-27 09:01 910K
20260427T06Z_MSC_RDPS_WindDir_IsbL-0950_RLatLon0.09_PT071H.grib2 2026-04-27 09:01 909K
20260427T06Z_MSC_RDPS_WindDir_IsbL-0970_RLatLon0.09_PT071H.grib2 2026-04-27 09:01 918K
20260427T06Z_MSC_RDPS_WindDir_IsbL-0985_RLatLon0.09_PT071H.grib2 2026-04-27 09:01 926K
20260427T06Z_MSC_RDPS_WindDir_IsbL-1000_RLatLon0.09_PT071H.grib2 2026-04-27 09:01 939K
20260427T06Z_MSC_RDPS_WindDir_IsbL-1015_RLatLon0.09_PT071H.grib2 2026-04-27 09:01 955K
20260427T06Z_MSC_RDPS_WindGust-Max_AGL-10m_RLatLon0.09_PT071H.grib2 2026-04-27 09:01 1.0M
20260427T06Z_MSC_RDPS_WindGust-Min_AGL-10m_RLatLon0.09_PT071H.grib2 2026-04-27 09:01 959K
20260427T06Z_MSC_RDPS_WindGust_AGL-10m_RLatLon0.09_PT071H.grib2 2026-04-27 09:01 1.0M
20260427T06Z_MSC_RDPS_WindSpeed_AGL-10m_RLatLon0.09_PT071H.grib2 2026-04-27 09:01 826K
20260427T06Z_MSC_RDPS_WindSpeed_AGL-120m_RLatLon0.09_PT071H.grib2 2026-04-27 09:01 532K
20260427T06Z_MSC_RDPS_WindSpeed_AGL-40m_RLatLon0.09_PT071H.grib2 2026-04-27 09:01 533K
20260427T06Z_MSC_RDPS_WindSpeed_AGL-80m_RLatLon0.09_PT071H.grib2 2026-04-27 09:01 532K
20260427T06Z_MSC_RDPS_WindSpeed_IsbL-0001_RLatLon0.09_PT071H.grib2 2026-04-27 09:01 251K
20260427T06Z_MSC_RDPS_WindSpeed_IsbL-0005_RLatLon0.09_PT071H.grib2 2026-04-27 09:01 387K
20260427T06Z_MSC_RDPS_WindSpeed_IsbL-0010_RLatLon0.09_PT071H.grib2 2026-04-27 09:01 399K
20260427T06Z_MSC_RDPS_WindSpeed_IsbL-0020_RLatLon0.09_PT071H.grib2 2026-04-27 09:01 323K
20260427T06Z_MSC_RDPS_WindSpeed_IsbL-0030_RLatLon0.09_PT071H.grib2 2026-04-27 09:01 321K
20260427T06Z_MSC_RDPS_WindSpeed_IsbL-0050_RLatLon0.09_PT071H.grib2 2026-04-27 09:01 350K
20260427T06Z_MSC_RDPS_WindSpeed_IsbL-0100_RLatLon0.09_PT071H.grib2 2026-04-27 09:01 485K
20260427T06Z_MSC_RDPS_WindSpeed_IsbL-0150_RLatLon0.09_PT071H.grib2 2026-04-27 09:01 387K
20260427T06Z_MSC_RDPS_WindSpeed_IsbL-0175_RLatLon0.09_PT071H.grib2 2026-04-27 09:01 435K
20260427T06Z_MSC_RDPS_WindSpeed_IsbL-0200_RLatLon0.09_PT071H.grib2 2026-04-27 09:01 450K
20260427T06Z_MSC_RDPS_WindSpeed_IsbL-0225_RLatLon0.09_PT071H.grib2 2026-04-27 09:01 456K
20260427T06Z_MSC_RDPS_WindSpeed_IsbL-0250_RLatLon0.09_PT071H.grib2 2026-04-27 09:01 460K
20260427T06Z_MSC_RDPS_WindSpeed_IsbL-0275_RLatLon0.09_PT071H.grib2 2026-04-27 09:01 480K
20260427T06Z_MSC_RDPS_WindSpeed_IsbL-0300_RLatLon0.09_PT071H.grib2 2026-04-27 09:01 476K
20260427T06Z_MSC_RDPS_WindSpeed_IsbL-0350_RLatLon0.09_PT071H.grib2 2026-04-27 09:01 486K
20260427T06Z_MSC_RDPS_WindSpeed_IsbL-0400_RLatLon0.09_PT071H.grib2 2026-04-27 09:01 486K
20260427T06Z_MSC_RDPS_WindSpeed_IsbL-0450_RLatLon0.09_PT071H.grib2 2026-04-27 09:01 468K
20260427T06Z_MSC_RDPS_WindSpeed_IsbL-0500_RLatLon0.09_PT071H.grib2 2026-04-27 09:01 586K
20260427T06Z_MSC_RDPS_WindSpeed_IsbL-0550_RLatLon0.09_PT071H.grib2 2026-04-27 09:01 585K
20260427T06Z_MSC_RDPS_WindSpeed_IsbL-0600_RLatLon0.09_PT071H.grib2 2026-04-27 09:01 593K
20260427T06Z_MSC_RDPS_WindSpeed_IsbL-0650_RLatLon0.09_PT071H.grib2 2026-04-27 09:01 614K
20260427T06Z_MSC_RDPS_WindSpeed_IsbL-0700_RLatLon0.09_PT071H.grib2 2026-04-27 09:01 639K
20260427T06Z_MSC_RDPS_WindSpeed_IsbL-0750_RLatLon0.09_PT071H.grib2 2026-04-27 09:01 709K
20260427T06Z_MSC_RDPS_WindSpeed_IsbL-0800_RLatLon0.09_PT071H.grib2 2026-04-27 09:01 748K
20260427T06Z_MSC_RDPS_WindSpeed_IsbL-0850_RLatLon0.09_PT071H.grib2 2026-04-27 09:01 795K
20260427T06Z_MSC_RDPS_WindSpeed_IsbL-0875_RLatLon0.09_PT071H.grib2 2026-04-27 09:01 817K
20260427T06Z_MSC_RDPS_WindSpeed_IsbL-0900_RLatLon0.09_PT071H.grib2 2026-04-27 09:01 834K
20260427T06Z_MSC_RDPS_WindSpeed_IsbL-0925_RLatLon0.09_PT071H.grib2 2026-04-27 09:01 848K
20260427T06Z_MSC_RDPS_WindSpeed_IsbL-0950_RLatLon0.09_PT071H.grib2 2026-04-27 09:01 853K
20260427T06Z_MSC_RDPS_WindSpeed_IsbL-0970_RLatLon0.09_PT071H.grib2 2026-04-27 09:01 851K
20260427T06Z_MSC_RDPS_WindSpeed_IsbL-0985_RLatLon0.09_PT071H.grib2 2026-04-27 09:01 844K
20260427T06Z_MSC_RDPS_WindSpeed_IsbL-1000_RLatLon0.09_PT071H.grib2 2026-04-27 09:01 838K
20260427T06Z_MSC_RDPS_WindSpeed_IsbL-1015_RLatLon0.09_PT071H.grib2 2026-04-27 09:01 827K
20260427T06Z_MSC_RDPS_WindU_AGL-10m_RLatLon0.09_PT071H.grib2 2026-04-27 09:01 425K
20260427T06Z_MSC_RDPS_WindU_AGL-120m_RLatLon0.09_PT071H.grib2 2026-04-27 09:01 414K
20260427T06Z_MSC_RDPS_WindU_AGL-40m_RLatLon0.09_PT071H.grib2 2026-04-27 09:01 531K
20260427T06Z_MSC_RDPS_WindU_AGL-80m_RLatLon0.09_PT071H.grib2 2026-04-27 09:01 530K
20260427T06Z_MSC_RDPS_WindU_IsbL-0001_RLatLon0.09_PT071H.grib2 2026-04-27 09:01 241K
20260427T06Z_MSC_RDPS_WindU_IsbL-0005_RLatLon0.09_PT071H.grib2 2026-04-27 09:01 287K
20260427T06Z_MSC_RDPS_WindU_IsbL-0010_RLatLon0.09_PT071H.grib2 2026-04-27 09:01 299K
20260427T06Z_MSC_RDPS_WindU_IsbL-0020_RLatLon0.09_PT071H.grib2 2026-04-27 09:01 313K
20260427T06Z_MSC_RDPS_WindU_IsbL-0030_RLatLon0.09_PT071H.grib2 2026-04-27 09:01 313K
20260427T06Z_MSC_RDPS_WindU_IsbL-0050_RLatLon0.09_PT071H.grib2 2026-04-27 09:01 344K
20260427T06Z_MSC_RDPS_WindU_IsbL-0100_RLatLon0.09_PT071H.grib2 2026-04-27 09:01 439K
20260427T06Z_MSC_RDPS_WindU_IsbL-0150_RLatLon0.09_PT071H.grib2 2026-04-27 09:01 402K
20260427T06Z_MSC_RDPS_WindU_IsbL-0175_RLatLon0.09_PT071H.grib2 2026-04-27 09:01 426K
20260427T06Z_MSC_RDPS_WindU_IsbL-0200_RLatLon0.09_PT071H.grib2 2026-04-27 09:01 442K
20260427T06Z_MSC_RDPS_WindU_IsbL-0225_RLatLon0.09_PT071H.grib2 2026-04-27 09:01 347K
20260427T06Z_MSC_RDPS_WindU_IsbL-0250_RLatLon0.09_PT071H.grib2 2026-04-27 09:01 349K
20260427T06Z_MSC_RDPS_WindU_IsbL-0275_RLatLon0.09_PT071H.grib2 2026-04-27 09:01 365K
20260427T06Z_MSC_RDPS_WindU_IsbL-0300_RLatLon0.09_PT071H.grib2 2026-04-27 09:01 361K
20260427T06Z_MSC_RDPS_WindU_IsbL-0350_RLatLon0.09_PT071H.grib2 2026-04-27 09:01 369K
20260427T06Z_MSC_RDPS_WindU_IsbL-0400_RLatLon0.09_PT071H.grib2 2026-04-27 09:01 473K
20260427T06Z_MSC_RDPS_WindU_IsbL-0450_RLatLon0.09_PT071H.grib2 2026-04-27 09:01 472K
20260427T06Z_MSC_RDPS_WindU_IsbL-0500_RLatLon0.09_PT071H.grib2 2026-04-27 09:01 455K
20260427T06Z_MSC_RDPS_WindU_IsbL-0550_RLatLon0.09_PT071H.grib2 2026-04-27 09:01 455K
20260427T06Z_MSC_RDPS_WindU_IsbL-0600_RLatLon0.09_PT071H.grib2 2026-04-27 09:01 463K
20260427T06Z_MSC_RDPS_WindU_IsbL-0650_RLatLon0.09_PT071H.grib2 2026-04-27 09:01 482K
20260427T06Z_MSC_RDPS_WindU_IsbL-0700_RLatLon0.09_PT071H.grib2 2026-04-27 09:01 505K
20260427T06Z_MSC_RDPS_WindU_IsbL-0750_RLatLon0.09_PT071H.grib2 2026-04-27 09:01 529K
20260427T06Z_MSC_RDPS_WindU_IsbL-0800_RLatLon0.09_PT071H.grib2 2026-04-27 09:01 565K
20260427T06Z_MSC_RDPS_WindU_IsbL-0850_RLatLon0.09_PT071H.grib2 2026-04-27 09:01 613K
20260427T06Z_MSC_RDPS_WindU_IsbL-0875_RLatLon0.09_PT071H.grib2 2026-04-27 09:01 630K
20260427T06Z_MSC_RDPS_WindU_IsbL-0900_RLatLon0.09_PT071H.grib2 2026-04-27 09:01 643K
20260427T06Z_MSC_RDPS_WindU_IsbL-0925_RLatLon0.09_PT071H.grib2 2026-04-27 09:01 651K
20260427T06Z_MSC_RDPS_WindU_IsbL-0950_RLatLon0.09_PT071H.grib2 2026-04-27 09:01 649K
20260427T06Z_MSC_RDPS_WindU_IsbL-0970_RLatLon0.09_PT071H.grib2 2026-04-27 09:01 647K
20260427T06Z_MSC_RDPS_WindU_IsbL-0985_RLatLon0.09_PT071H.grib2 2026-04-27 09:01 780K
20260427T06Z_MSC_RDPS_WindU_IsbL-1000_RLatLon0.09_PT071H.grib2 2026-04-27 09:01 775K
20260427T06Z_MSC_RDPS_WindU_IsbL-1015_RLatLon0.09_PT071H.grib2 2026-04-27 09:01 768K
20260427T06Z_MSC_RDPS_WindV_AGL-10m_RLatLon0.09_PT071H.grib2 2026-04-27 09:01 426K
20260427T06Z_MSC_RDPS_WindV_AGL-120m_RLatLon0.09_PT071H.grib2 2026-04-27 09:01 529K
20260427T06Z_MSC_RDPS_WindV_AGL-40m_RLatLon0.09_PT071H.grib2 2026-04-27 09:01 531K
20260427T06Z_MSC_RDPS_WindV_AGL-80m_RLatLon0.09_PT071H.grib2 2026-04-27 09:01 530K
20260427T06Z_MSC_RDPS_WindV_IsbL-0001_RLatLon0.09_PT071H.grib2 2026-04-27 09:01 292K
20260427T06Z_MSC_RDPS_WindV_IsbL-0005_RLatLon0.09_PT071H.grib2 2026-04-27 09:01 287K
20260427T06Z_MSC_RDPS_WindV_IsbL-0010_RLatLon0.09_PT071H.grib2 2026-04-27 09:01 300K
20260427T06Z_MSC_RDPS_WindV_IsbL-0020_RLatLon0.09_PT071H.grib2 2026-04-27 09:01 315K
20260427T06Z_MSC_RDPS_WindV_IsbL-0030_RLatLon0.09_PT071H.grib2 2026-04-27 09:01 316K
20260427T06Z_MSC_RDPS_WindV_IsbL-0050_RLatLon0.09_PT071H.grib2 2026-04-27 09:01 344K
20260427T06Z_MSC_RDPS_WindV_IsbL-0100_RLatLon0.09_PT071H.grib2 2026-04-27 09:01 337K
20260427T06Z_MSC_RDPS_WindV_IsbL-0150_RLatLon0.09_PT071H.grib2 2026-04-27 09:01 400K
20260427T06Z_MSC_RDPS_WindV_IsbL-0175_RLatLon0.09_PT071H.grib2 2026-04-27 09:01 329K
20260427T06Z_MSC_RDPS_WindV_IsbL-0200_RLatLon0.09_PT071H.grib2 2026-04-27 09:01 341K
20260427T06Z_MSC_RDPS_WindV_IsbL-0225_RLatLon0.09_PT071H.grib2 2026-04-27 09:01 370K
20260427T06Z_MSC_RDPS_WindV_IsbL-0250_RLatLon0.09_PT071H.grib2 2026-04-27 09:01 373K
20260427T06Z_MSC_RDPS_WindV_IsbL-0275_RLatLon0.09_PT071H.grib2 2026-04-27 09:01 387K
20260427T06Z_MSC_RDPS_WindV_IsbL-0300_RLatLon0.09_PT071H.grib2 2026-04-27 09:01 382K
20260427T06Z_MSC_RDPS_WindV_IsbL-0350_RLatLon0.09_PT071H.grib2 2026-04-27 09:01 366K
20260427T06Z_MSC_RDPS_WindV_IsbL-0400_RLatLon0.09_PT071H.grib2 2026-04-27 09:01 368K
20260427T06Z_MSC_RDPS_WindV_IsbL-0450_RLatLon0.09_PT071H.grib2 2026-04-27 09:01 471K
20260427T06Z_MSC_RDPS_WindV_IsbL-0500_RLatLon0.09_PT071H.grib2 2026-04-27 09:01 470K
20260427T06Z_MSC_RDPS_WindV_IsbL-0550_RLatLon0.09_PT071H.grib2 2026-04-27 09:01 470K
20260427T06Z_MSC_RDPS_WindV_IsbL-0600_RLatLon0.09_PT071H.grib2 2026-04-27 09:01 477K
20260427T06Z_MSC_RDPS_WindV_IsbL-0650_RLatLon0.09_PT071H.grib2 2026-04-27 09:01 496K
20260427T06Z_MSC_RDPS_WindV_IsbL-0700_RLatLon0.09_PT071H.grib2 2026-04-27 09:01 501K
20260427T06Z_MSC_RDPS_WindV_IsbL-0750_RLatLon0.09_PT071H.grib2 2026-04-27 09:01 526K
20260427T06Z_MSC_RDPS_WindV_IsbL-0800_RLatLon0.09_PT071H.grib2 2026-04-27 09:01 561K
20260427T06Z_MSC_RDPS_WindV_IsbL-0850_RLatLon0.09_PT071H.grib2 2026-04-27 09:01 609K
20260427T06Z_MSC_RDPS_WindV_IsbL-0875_RLatLon0.09_PT071H.grib2 2026-04-27 09:01 763K
20260427T06Z_MSC_RDPS_WindV_IsbL-0900_RLatLon0.09_PT071H.grib2 2026-04-27 09:01 778K
20260427T06Z_MSC_RDPS_WindV_IsbL-0925_RLatLon0.09_PT071H.grib2 2026-04-27 09:01 789K
20260427T06Z_MSC_RDPS_WindV_IsbL-0950_RLatLon0.09_PT071H.grib2 2026-04-27 09:01 787K
20260427T06Z_MSC_RDPS_WindV_IsbL-0970_RLatLon0.09_PT071H.grib2 2026-04-27 09:01 788K
20260427T06Z_MSC_RDPS_WindV_IsbL-0985_RLatLon0.09_PT071H.grib2 2026-04-27 09:01 782K
20260427T06Z_MSC_RDPS_WindV_IsbL-1000_RLatLon0.09_PT071H.grib2 2026-04-27 09:01 822K
20260427T06Z_MSC_RDPS_WindV_IsbL-1015_RLatLon0.09_PT071H.grib2 2026-04-27 09:01 813K